| time (UTC) | temp F | wind direction | speed MPH | gust MPH | rain 1hr in | rain 24hr in | rain mn in | humidity % | barometer mb |
| 20260905095646 | 89 | 284 | 5.0 | 7.0 | 0.00 | 0.00 | 0.00 | 55 | 1019.0 |
| 20260905095146 | 89 | 332 | 2.0 | 9.0 | 0.00 | 0.00 | 0.00 | 53 | 1019.1 |
| 20260905094644 | 89 | 275 | 5.0 | 9.0 | 0.00 | 0.00 | 0.00 | 53 | 1019.0 |
| 20260905094146 | 89 | 267 | 7.0 | 8.0 | 0.00 | 0.00 | 0.00 | 52 | 1019.1 |
| 20260905093646 | 89 | 270 | 5.0 | 8.0 | 0.00 | 0.00 | 0.00 | 52 | 1019.1 |
| 20260905093149 | 89 | 278 | 5.0 | 9.0 | 0.00 | 0.00 | 0.00 | 50 | 1019.1 |
| 20260905092646 | 89 | 277 | 1.0 | 6.0 | 0.00 | 0.00 | 0.00 | 50 | 1019.1 |
| 20260905092143 | 89 | 21 | 2.0 | 7.0 | 0.00 | 0.00 | 0.00 | 50 | 1019.1 |
| 20260905091646 | 89 | 330 | 3.0 | 8.0 | 0.00 | 0.00 | 0.00 | 50 | 1019.1 |
| 20260905091143 | 89 | 42 | 0.0 | 7.0 | 0.00 | 0.00 | 0.00 | 52 | 1019.1 |
| 20260905090643 | 88 | 261 | 3.0 | 5.0 | 0.00 | 0.00 | 0.00 | 52 | 1019.1 |
| 20260905090143 | 88 | 294 | 4.0 | 8.0 | 0.00 | 0.00 | 0.00 | 53 | 1019.1 |
| 20260905085643 | 88 | 294 | 2.0 | 10.0 | 0.00 | 0.00 | 0.00 | 51 | 1019.2 |
| 20260905085143 | 88 | 293 | 1.0 | 6.0 | 0.00 | 0.00 | 0.00 | 55 | 1019.2 |
| 20260905084646 | 87 | 328 | 3.0 | 5.0 | 0.00 | 0.00 | 0.00 | 57 | 1019.2 |
| 20260905084146 | 87 | 234 | 0.0 | 6.0 | 0.00 | 0.00 | 0.00 | 59 | 1019.2 |
| 20260905083646 | 87 | 355 | 3.0 | 8.0 | 0.00 | 0.00 | 0.00 | 61 | 1019.2 |
| 20260905083146 | 87 | 348 | 6.0 | 8.0 | 0.00 | 0.00 | 0.00 | 63 | 1019.1 |
| 20260905082643 | 87 | 278 | 5.0 | 8.0 | 0.00 | 0.00 | 0.00 | 64 | 1019.1 |
| 20260905082146 | 87 | 320 | 4.0 | 5.0 | 0.00 | 0.00 | 0.00 | 65 | 1019.1 |
| 20260905081643 | 87 | 238 | 4.0 | 6.0 | 0.00 | 0.00 | 0.00 | 65 | 1019.1 |
| 20260905081143 | 87 | 257 | 3.0 | 8.0 | 0.00 | 0.00 | 0.00 | 64 | 1019.1 |
| 20260905080643 | 87 | 293 | 6.0 | 6.0 | 0.00 | 0.00 | 0.00 | 64 | 1019.0 |
| 20260905080146 | 87 | 246 | 0.0 | 4.0 | 0.00 | 0.00 | 0.00 | 62 | 1019.0 |
| 20260905075646 | 86 | 326 | 1.0 | 5.0 | 0.00 | 0.00 | 0.00 | 61 | 1019.0 |
| 20260905075143 | 86 | 250 | 0.0 | 6.0 | 0.00 | 0.00 | 0.00 | 61 | 1018.8 |
| 20260905074652 | 85 | 225 | 2.0 | 5.0 | 0.00 | 0.00 | 0.00 | 63 | 1018.9 |
| 20260905074146 | 85 | 273 | 1.0 | 5.0 | 0.00 | 0.00 | 0.00 | 65 | 1018.9 |
| 20260905073646 | 85 | 250 | 2.0 | 4.0 | 0.00 | 0.00 | 0.00 | 67 | 1018.9 |
| 20260905073146 | 85 | 294 | 0.0 | 2.0 | 0.00 | 0.00 | 0.00 | 69 | 1018.8 |
| 20260905072643 | 85 | 243 | 2.0 | 6.0 | 0.00 | 0.00 | 0.00 | 69 | 1018.8 |
| 20260905072143 | 85 | 279 | 0.0 | 0.0 | 0.00 | 0.00 | 0.00 | 70 | 1018.8 |
| 20260905071643 | 84 | 237 | 0.0 | 3.0 | 0.00 | 0.00 | 0.00 | 69 | 1018.8 |
| 20260905071149 | 84 | 273 | 0.0 | 3.0 | 0.00 | 0.00 | 0.00 | 71 | 1018.7 |
| 20260905070643 | 84 | 244 | 2.0 | 3.0 | 0.00 | 0.00 | 0.00 | 71 | 1018.7 |
| 20260905070146 | 84 | 243 | 2.0 | 4.0 | 0.00 | 0.00 | 0.00 | 70 | 1018.7 |
| 20260905065646 | 84 | 271 | 0.0 | 0.0 | 0.00 | 0.00 | 0.00 | 69 | 1018.7 |
| 20260905065149 | 84 | 181 | 0.0 | 0.0 | 0.00 | 0.00 | 0.00 | 68 | 1018.7 |
| 20260905064643 | 83 | 154 | 0.0 | 0.0 | 0.00 | 0.00 | 0.00 | 67 | 1018.7 |
| 20260905064146 | 83 | 171 | 0.0 | 0.0 | 0.00 | 0.00 | 0.00 | 65 | 1018.7 |
| 20260905063643 | 83 | 153 | 0.0 | 3.0 | 0.00 | 0.00 | 0.00 | 64 | 1018.8 |
| 20260905063143 | 82 | 217 | 0.0 | 4.0 | 0.00 | 0.00 | 0.00 | 64 | 1018.8 |
| 20260905062646 | 82 | 184 | 1.0 | 5.0 | 0.00 | 0.00 | 0.00 | 63 | 1018.8 |
| 20260905062144 | 81 | 152 | 1.0 | 5.0 | 0.00 | 0.00 | 0.00 | 63 | 1018.8 |
| 20260905061646 | 81 | 173 | 2.0 | 5.0 | 0.00 | 0.00 | 0.00 | 62 | 1018.8 |
| 20260905061147 | 80 | 178 | 1.0 | 7.0 | 0.00 | 0.00 | 0.00 | 63 | 1018.8 |
| 20260905060643 | 80 | 134 | 5.0 | 7.0 | 0.00 | 0.00 | 0.00 | 63 | 1018.8 |
| 20260905060143 | 79 | 179 | 0.0 | 5.0 | 0.00 | 0.00 | 0.00 | 63 | 1018.7 |
| 20260905055650 | 79 | 167 | 4.0 | 5.0 | 0.00 | 0.00 | 0.00 | 63 | 1018.7 |
| 20260905055147 | 79 | 136 | 2.0 | 5.0 | 0.00 | 0.00 | 0.00 | 63 | 1018.7 |
| 20260905054650 | 78 | 121 | 3.0 | 6.0 | 0.00 | 0.00 | 0.00 | 63 | 1018.7 |
| 20260905054144 | 78 | 81 | 1.0 | 5.0 | 0.00 | 0.00 | 0.00 | 63 | 1018.7 |
| 20260905053649 | 77 | 111 | 0.0 | 6.0 | 0.00 | 0.00 | 0.00 | 63 | 1018.6 |
| 20260905053144 | 77 | 128 | 4.0 | 7.0 | 0.00 | 0.00 | 0.00 | 63 | 1018.6 |
| 20260905052647 | 77 | 137 | 2.0 | 7.0 | 0.00 | 0.00 | 0.00 | 62 | 1018.6 |
| 20260905052150 | 77 | 147 | 1.0 | 6.0 | 0.00 | 0.00 | 0.00 | 61 | 1018.5 |
| 20260905051644 | 76 | 130 | 2.0 | 6.0 | 0.00 | 0.00 | 0.00 | 61 | 1018.5 |
| 20260905051144 | 76 | 154 | 3.0 | 6.0 | 0.00 | 0.00 | 0.00 | 60 | 1018.4 |
| 20260905050643 | 76 | 187 | 3.0 | 6.0 | 0.00 | 0.00 | 0.00 | 60 | 1018.4 |
| 20260905050150 | 76 | 167 | 3.0 | 7.0 | 0.00 | 0.00 | 0.00 | 59 | 1018.4 |
| 20260905045644 | 76 | 180 | 3.0 | 8.0 | 0.00 | 0.00 | 0.00 | 59 | 1018.4 |
| 20260905045144 | 76 | 165 | 1.0 | 6.0 | 0.00 | 0.00 | 0.00 | 59 | 1018.3 |
| 20260905044644 | 76 | 146 | 2.0 | 7.0 | 0.00 | 0.00 | 0.00 | 58 | 1018.3 |
| 20260905044144 | 76 | 183 | 1.0 | 7.0 | 0.00 | 0.00 | 0.00 | 58 | 1018.2 |
| 20260905043644 | 76 | 164 | 3.0 | 5.0 | 0.00 | 0.00 | 0.00 | 57 | 1018.1 |
| 20260905043147 | 76 | 165 | 3.0 | 6.0 | 0.00 | 0.00 | 0.00 | 57 | 1018.1 |
| 20260905042647 | 76 | 95 | 5.0 | 6.0 | 0.00 | 0.00 | 0.00 | 57 | 1018.1 |
| 20260905042147 | 76 | 122 | 4.0 | 7.0 | 0.00 | 0.00 | 0.00 | 57 | 1018.1 |
| 20260905041650 | 76 | 126 | 2.0 | 7.0 | 0.00 | 0.00 | 0.00 | 57 | 1018.1 |
| 20260905041144 | 76 | 131 | 2.0 | 6.0 | 0.00 | 0.00 | 0.00 | 57 | 1018.1 |
| 20260905040647 | 76 | 183 | 3.0 | 7.0 | 0.00 | 0.00 | 0.00 | 57 | 1018.1 |
| 20260905040150 | 76 | 203 | 2.0 | 6.0 | 0.00 | 0.00 | 0.00 | 57 | 1018.1 |
| 20260905035647 | 76 | 146 | 5.0 | 7.0 | 0.00 | 0.00 | 0.00 | 57 | 1018.0 |
| 20260905035144 | 76 | 108 | 2.0 | 7.0 | 0.00 | 0.00 | 0.00 | 57 | 1018.0 |
| 20260905034644 | 76 | 171 | 1.0 | 7.0 | 0.00 | 0.00 | 0.00 | 57 | 1017.9 |
| 20260905034147 | 76 | 161 | 3.0 | 6.0 | 0.00 | 0.00 | 0.00 | 57 | 1017.9 |
| 20260905033647 | 76 | 144 | 3.0 | 5.0 | 0.00 | 0.00 | 0.00 | 57 | 1017.9 |
| 20260905033144 | 76 | 144 | 0.0 | 5.0 | 0.00 | 0.00 | 0.00 | 57 | 1017.8 |
| 20260905032647 | 76 | 173 | 4.0 | 7.0 | 0.00 | 0.00 | 0.00 | 57 | 1017.8 |
| 20260905032144 | 76 | 165 | 6.0 | 8.0 | 0.00 | 0.00 | 0.00 | 57 | 1017.7 |
| 20260905031644 | 76 | 123 | 5.0 | 7.0 | 0.00 | 0.00 | 0.00 | 57 | 1017.7 |
| 20260905031144 | 76 | 142 | 0.0 | 6.0 | 0.00 | 0.00 | 0.00 | 57 | 1017.7 |
| 20260905030650 | 76 | 155 | 2.0 | 7.0 | 0.00 | 0.00 | 0.00 | 57 | 1017.7 |
| 20260905030144 | 76 | 185 | 3.0 | 8.0 | 0.00 | 0.00 | 0.00 | 56 | 1017.7 |
| 20260905025644 | 76 | 160 | 2.0 | 8.0 | 0.00 | 0.00 | 0.00 | 56 | 1017.7 |
| 20260905025148 | 76 | 169 | 3.0 | 6.0 | 0.00 | 0.00 | 0.00 | 56 | 1017.7 |
| 20260905024644 | 76 | 177 | 1.0 | 6.0 | 0.00 | 0.00 | 0.00 | 56 | 1017.7 |
| 20260905024144 | 76 | 174 | 2.0 | 8.0 | 0.00 | 0.00 | 0.00 | 56 | 1017.7 |
| 20260905023650 | 76 | 145 | 2.0 | 7.0 | 0.00 | 0.00 | 0.00 | 56 | 1017.7 |
| 20260905023148 | 76 | 147 | 5.0 | 7.0 | 0.00 | 0.00 | 0.00 | 56 | 1017.7 |
| 20260905022650 | 76 | 165 | 7.0 | 6.0 | 0.00 | 0.00 | 0.00 | 55 | 1017.7 |
| 20260905022144 | 77 | 138 | 2.0 | 6.0 | 0.00 | 0.00 | 0.00 | 55 | 1017.7 |
| 20260905021647 | 77 | 171 | 3.0 | 7.0 | 0.00 | 0.00 | 0.00 | 54 | 1017.8 |
| 20260905021150 | 77 | 117 | 2.0 | 6.0 | 0.00 | 0.00 | 0.00 | 54 | 1017.7 |
| 20260905020647 | 77 | 163 | 2.0 | 7.0 | 0.00 | 0.00 | 0.00 | 54 | 1017.7 |
| 20260905020147 | 77 | 164 | 4.0 | 6.0 | 0.00 | 0.00 | 0.00 | 54 | 1017.7 |
| 20260905015641 | 77 | 126 | 6.0 | 7.0 | 0.00 | 0.00 | 0.00 | 54 | 1017.7 |
| 20260905015144 | 77 | 144 | 2.0 | 5.0 | 0.00 | 0.00 | 0.00 | 53 | 1017.8 |
| 20260905014644 | 77 | 138 | 1.0 | 6.0 | 0.00 | 0.00 | 0.00 | 53 | 1017.7 |
| 20260905014141 | 77 | 158 | 2.0 | 5.0 | 0.00 | 0.00 | 0.00 | 53 | 1017.8 |
| 20260905013641 | 77 | 150 | 3.0 | 6.0 | 0.00 | 0.00 | 0.00 | 53 | 1017.8 |
| 20260905013147 | 77 | 163 | 1.0 | 5.0 | 0.00 | 0.00 | 0.00 | 53 | 1017.8 |
| 20260905012641 | 77 | 154 | 0.0 | 4.0 | 0.00 | 0.00 | 0.00 | 53 | 1017.8 |
| 20260905012141 | 77 | 163 | 3.0 | 4.0 | 0.00 | 0.00 | 0.00 | 53 | 1017.8 |
| 20260905011641 | 77 | 196 | 2.0 | 4.0 | 0.00 | 0.00 | 0.00 | 53 | 1017.8 |
| 20260905011141 | 77 | 146 | 4.0 | 5.0 | 0.00 | 0.00 | 0.00 | 53 | 1017.8 |
| 20260905010641 | 78 | 183 | 3.0 | 6.0 | 0.00 | 0.00 | 0.00 | 53 | 1017.7 |
| 20260905010144 | 78 | 188 | 1.0 | 6.0 | 0.00 | 0.00 | 0.00 | 53 | 1017.7 |
| 20260905005641 | 78 | 138 | 2.0 | 5.0 | 0.00 | 0.00 | 0.00 | 54 | 1017.7 |
| 20260905005141 | 78 | 151 | 0.0 | 4.0 | 0.00 | 0.00 | 0.00 | 54 | 1017.7 |
| 20260905004641 | 78 | 157 | 2.0 | 4.0 | 0.00 | 0.00 | 0.00 | 54 | 1017.7 |
| 20260905004141 | 78 | 152 | 1.0 | 3.0 | 0.00 | 0.00 | 0.00 | 54 | 1017.6 |
| 20260905003641 | 78 | 169 | 2.0 | 4.0 | 0.00 | 0.00 | 0.00 | 54 | 1017.6 |
| 20260905003144 | 78 | 153 | 1.0 | 5.0 | 0.00 | 0.00 | 0.00 | 54 | 1017.6 |
| 20260905002642 | 78 | 159 | 2.0 | 5.0 | 0.00 | 0.00 | 0.00 | 54 | 1017.6 |
| 20260905002145 | 78 | 159 | 2.0 | 5.0 | 0.00 | 0.00 | 0.00 | 54 | 1017.6 |
| 20260905001644 | 78 | 175 | 5.0 | 5.0 | 0.00 | 0.00 | 0.00 | 54 | 1017.6 |
| 20260905001141 | 78 | 148 | 0.0 | 5.0 | 0.00 | 0.00 | 0.00 | 54 | 1017.6 |
| 20260905000642 | 78 | 140 | 2.0 | 3.0 | 0.00 | 0.00 | 0.00 | 55 | 1017.7 |
| 20260905000142 | 78 | 138 | 0.0 | 3.0 | 0.00 | 0.00 | 0.00 | 55 | 1017.7 |
| 20260904235645 | 78 | 171 | 2.0 | 5.0 | 0.00 | 0.00 | 0.00 | 55 | 1017.7 |
| 20260904235148 | 78 | 149 | 3.0 | 7.0 | 0.00 | 0.00 | 0.00 | 55 | 1017.6 |
| 20260904234645 | 78 | 174 | 0.0 | 6.0 | 0.00 | 0.00 | 0.00 | 55 | 1017.7 |
| 20260904234142 | 78 | 153 | 5.0 | 5.0 | 0.00 | 0.00 | 0.00 | 55 | 1017.7 |
| 20260904233642 | 78 | 125 | 2.0 | 5.0 | 0.00 | 0.00 | 0.00 | 55 | 1017.8 |
| 20260904233142 | 78 | 146 | 3.0 | 6.0 | 0.00 | 0.00 | 0.00 | 55 | 1017.8 |
| 20260904232642 | 78 | 147 | 2.0 | 7.0 | 0.00 | 0.00 | 0.00 | 55 | 1017.9 |
| 20260904232145 | 78 | 153 | 2.0 | 7.0 | 0.00 | 0.00 | 0.00 | 56 | 1017.9 |
| 20260904231642 | 78 | 227 | 1.0 | 5.0 | 0.00 | 0.00 | 0.00 | 56 | 1018.0 |
| 20260904231145 | 78 | 136 | 3.0 | 7.0 | 0.00 | 0.00 | 0.00 | 57 | 1018.1 |
| 20260904230642 | 78 | 149 | 3.0 | 7.0 | 0.00 | 0.00 | 0.00 | 58 | 1018.1 |
| 20260904230145 | 78 | 147 | 6.0 | 6.0 | 0.00 | 0.00 | 0.00 | 58 | 1018.2 |
| 20260904225642 | 78 | 137 | 4.0 | 5.0 | 0.00 | 0.00 | 0.00 | 59 | 1018.2 |
| 20260904225142 | 79 | 163 | 2.0 | 7.0 | 0.00 | 0.00 | 0.00 | 59 | 1018.2 |
| 20260904224642 | 79 | 116 | 2.0 | 5.0 | 0.00 | 0.00 | 0.00 | 59 | 1018.2 |
| 20260904224142 | 79 | 160 | 2.0 | 3.0 | 0.00 | 0.00 | 0.00 | 59 | 1018.2 |
| 20260904223645 | 79 | 149 | 1.0 | 3.0 | 0.00 | 0.00 | 0.00 | 60 | 1018.2 |
| 20260904223148 | 79 | 144 | 1.0 | 4.0 | 0.00 | 0.00 | 0.00 | 61 | 1018.2 |
| 20260904222642 | 79 | 171 | 0.0 | 4.0 | 0.00 | 0.00 | 0.00 | 62 | 1018.2 |
| 20260904222142 | 79 | 150 | 3.0 | 6.0 | 0.00 | 0.00 | 0.00 | 63 | 1018.2 |
| 20260904221648 | 79 | 147 | 4.0 | 6.0 | 0.00 | 0.00 | 0.00 | 64 | 1018.2 |
| 20260904221142 | 79 | 143 | 3.0 | 5.0 | 0.00 | 0.00 | 0.00 | 65 | 1018.2 |
| 20260904220645 | 79 | 147 | 0.0 | 5.0 | 0.00 | 0.00 | 0.00 | 66 | 1018.3 |
| 20260904220151 | 79 | 168 | 2.0 | 4.0 | 0.00 | 0.00 | 0.00 | 68 | 1018.2 |
| 20260904215648 | 79 | 157 | 0.0 | 5.0 | 0.00 | 0.00 | 0.00 | 69 | 1018.3 |
| 20260904215145 | 79 | 217 | 2.0 | 4.0 | 0.00 | 0.00 | 0.00 | 70 | 1018.3 |
| 20260904214645 | 79 | 158 | 3.0 | 3.0 | 0.00 | 0.00 | 0.00 | 72 | 1018.2 |
| 20260904214142 | 79 | 131 | 1.0 | 4.0 | 0.00 | 0.00 | 0.00 | 73 | 1018.2 |
| 20260904213645 | 80 | 180 | 1.0 | 3.0 | 0.00 | 0.00 | 0.00 | 74 | 1018.2 |
| 20260904213145 | 80 | 136 | 3.0 | 4.0 | 0.00 | 0.00 | 0.00 | 74 | 1018.3 |
| 20260904212642 | 80 | 149 | 2.0 | 3.0 | 0.00 | 0.00 | 0.00 | 75 | 1018.2 |
| 20260904212142 | 80 | 112 | 0.0 | 0.0 | 0.00 | 0.00 | 0.00 | 76 | 1018.3 |
| 20260904211642 | 80 | 148 | 0.0 | 1.0 | 0.00 | 0.00 | 0.00 | 77 | 1018.4 |
| 20260904211145 | 80 | 148 | 0.0 | 2.0 | 0.00 | 0.00 | 0.00 | 77 | 1018.4 |
| 20260904210645 | 80 | 155 | 0.0 | 4.0 | 0.00 | 0.00 | 0.00 | 77 | 1018.5 |
| 20260904210142 | 80 | 178 | 1.0 | 4.0 | 0.00 | 0.00 | 0.00 | 77 | 1018.5 |
| 20260904205642 | 80 | 183 | 5.0 | 5.0 | 0.00 | 0.00 | 0.00 | 77 | 1018.5 |
| 20260904205148 | 80 | 175 | 3.0 | 4.0 | 0.00 | 0.00 | 0.00 | 77 | 1018.5 |
| 20260904204642 | 80 | 196 | 2.0 | 6.0 | 0.00 | 0.00 | 0.00 | 76 | 1018.4 |
| 20260904204143 | 80 | 106 | 5.0 | 7.0 | 0.00 | 0.00 | 0.00 | 77 | 1018.4 |
| 20260904203645 | 80 | 175 | 3.0 | 6.0 | 0.00 | 0.00 | 0.00 | 77 | 1018.5 |
| 20260904203142 | 80 | 153 | 3.0 | 8.0 | 0.00 | 0.00 | 0.00 | 76 | 1018.5 |
| 20260904202648 | 80 | 156 | 5.0 | 8.0 | 0.00 | 0.00 | 0.00 | 76 | 1018.5 |
| 20260904202148 | 80 | 141 | 2.0 | 6.0 | 0.00 | 0.00 | 0.00 | 75 | 1018.6 |
| 20260904201642 | 81 | 148 | 3.0 | 7.0 | 0.00 | 0.00 | 0.00 | 75 | 1018.6 |
| 20260904201142 | 81 | 169 | 0.0 | 6.0 | 0.00 | 0.00 | 0.00 | 75 | 1018.6 |
| 20260904200646 | 81 | 159 | 0.0 | 5.0 | 0.00 | 0.00 | 0.00 | 75 | 1018.6 |
| 20260904200145 | 81 | 155 | 0.0 | 4.0 | 0.00 | 0.00 | 0.00 | 75 | 1018.7 |
| 20260904195651 | 81 | 133 | 1.0 | 7.0 | 0.00 | 0.00 | 0.00 | 75 | 1018.7 |
| 20260904195142 | 81 | 163 | 3.0 | 7.0 | 0.00 | 0.00 | 0.00 | 75 | 1018.7 |
| 20260904194642 | 81 | 185 | 2.0 | 4.0 | 0.00 | 0.00 | 0.00 | 75 | 1018.7 |
| 20260904194148 | 81 | 152 | 4.0 | 6.0 | 0.00 | 0.00 | 0.00 | 75 | 1018.7 |
| 20260904193642 | 81 | 210 | 2.0 | 7.0 | 0.00 | 0.00 | 0.00 | 75 | 1018.7 |
| 20260904193145 | 82 | 149 | 4.0 | 5.0 | 0.00 | 0.00 | 0.00 | 74 | 1018.7 |
| 20260904192648 | 82 | 158 | 2.0 | 4.0 | 0.00 | 0.00 | 0.00 | 74 | 1018.6 |
| 20260904192142 | 82 | 168 | 0.0 | 3.0 | 0.00 | 0.00 | 0.00 | 74 | 1018.5 |
| 20260904191642 | 82 | 109 | 4.0 | 4.0 | 0.00 | 0.00 | 0.00 | 73 | 1018.5 |
| 20260904191148 | 82 | 153 | 1.0 | 2.0 | 0.00 | 0.00 | 0.00 | 74 | 1018.5 |
| 20260904190643 | 82 | 153 | 0.0 | 3.0 | 0.00 | 0.00 | 0.00 | 74 | 1018.4 |
| 20260904190142 | 83 | 127 | 2.0 | 3.0 | 0.00 | 0.00 | 0.00 | 74 | 1018.4 |
| 20260904185642 | 83 | 142 | 0.0 | 4.0 | 0.00 | 0.00 | 0.00 | 74 | 1018.3 |
| 20260904185148 | 83 | 135 | 3.0 | 4.0 | 0.00 | 0.00 | 0.00 | 74 | 1018.3 |
| 20260904184645 | 83 | 126 | 0.0 | 3.0 | 0.00 | 0.00 | 0.00 | 74 | 1018.2 |
| 20260904184142 | 83 | 188 | 2.0 | 4.0 | 0.00 | 0.00 | 0.00 | 73 | 1018.1 |
| 20260904183646 | 83 | 137 | 0.0 | 4.0 | 0.00 | 0.00 | 0.00 | 73 | 1018.1 |
| 20260904183145 | 84 | 176 | 3.0 | 3.0 | 0.00 | 0.00 | 0.00 | 74 | 1018.0 |
| 20260904182642 | 83 | 92 | 0.0 | 0.0 | 0.00 | 0.00 | 0.00 | 74 | 1017.9 |
| 20260904182145 | 83 | 92 | 0.0 | 3.0 | 0.00 | 0.00 | 0.00 | 74 | 1017.8 |
| 20260904181645 | 83 | 92 | 3.0 | 3.0 | 0.00 | 0.00 | 0.00 | 74 | 1017.7 |
| 20260904181142 | 83 | 109 | 2.0 | 5.0 | 0.00 | 0.00 | 0.00 | 74 | 1017.7 |
| 20260904180651 | 83 | 323 | 3.0 | 4.0 | 0.00 | 0.00 | 0.00 | 74 | 1017.6 |
| 20260904180145 | 84 | 9 | 2.0 | 4.0 | 0.00 | 0.00 | 0.00 | 74 | 1017.6 |
| 20260904175642 | 84 | 32 | 3.0 | 5.0 | 0.00 | 0.00 | 0.00 | 74 | 1017.5 |
| 20260904175142 | 84 | 355 | 3.0 | 5.0 | 0.00 | 0.00 | 0.00 | 74 | 1017.4 |
| 20260904174642 | 84 | 45 | 3.0 | 5.0 | 0.00 | 0.00 | 0.00 | 73 | 1017.3 |
| 20260904174142 | 84 | 27 | 3.0 | 5.0 | 0.00 | 0.00 | 0.00 | 73 | 1017.3 |
| 20260904173642 | 84 | 42 | 3.0 | 5.0 | 0.00 | 0.00 | 0.00 | 72 | 1017.3 |
| 20260904173142 | 85 | 0 | 4.0 | 5.0 | 0.00 | 0.00 | 0.00 | 71 | 1017.3 |
| 20260904172642 | 85 | 334 | 1.0 | 3.0 | 0.00 | 0.00 | 0.00 | 71 | 1017.3 |
| 20260904172145 | 85 | 13 | 0.0 | 4.0 | 0.00 | 0.00 | 0.00 | 71 | 1017.2 |
| 20260904171642 | 85 | 349 | 3.0 | 5.0 | 0.00 | 0.00 | 0.00 | 70 | 1017.2 |
| 20260904171142 | 86 | 328 | 1.0 | 4.0 | 0.00 | 0.00 | 0.00 | 69 | 1017.2 |
| 20260904170642 | 86 | 263 | 3.0 | 5.0 | 0.00 | 0.00 | 0.00 | 69 | 1017.2 |
| 20260904170142 | 86 | 330 | 2.0 | 4.0 | 0.00 | 0.00 | 0.00 | 68 | 1017.2 |
| 20260904165642 | 87 | 252 | 0.0 | 6.0 | 0.00 | 0.00 | 0.00 | 68 | 1017.2 |
| 20260904165142 | 87 | 296 | 5.0 | 5.0 | 0.00 | 0.00 | 0.00 | 67 | 1017.1 |
| 20260904164648 | 87 | 231 | 1.0 | 5.0 | 0.00 | 0.00 | 0.00 | 67 | 1017.1 |
| 20260904164148 | 87 | 306 | 2.0 | 4.0 | 0.00 | 0.00 | 0.00 | 66 | 1017.1 |
| 20260904163645 | 87 | 302 | 4.0 | 5.0 | 0.00 | 0.00 | 0.00 | 65 | 1017.0 |
| 20260904163142 | 87 | 285 | 2.0 | 5.0 | 0.00 | 0.00 | 0.00 | 65 | 1017.0 |
| 20260904162645 | 87 | 315 | 3.0 | 7.0 | 0.00 | 0.00 | 0.00 | 66 | 1017.0 |
| 20260904162142 | 87 | 284 | 5.0 | 7.0 | 0.00 | 0.00 | 0.00 | 66 | 1017.1 |
| 20260904161642 | 87 | 235 | 3.0 | 5.0 | 0.00 | 0.00 | 0.00 | 66 | 1017.1 |
| 20260904161142 | 88 | 242 | 4.0 | 7.0 | 0.00 | 0.00 | 0.00 | 66 | 1017.0 |
| 20260904160645 | 88 | 319 | 4.0 | 5.0 | 0.00 | 0.00 | 0.00 | 66 | 1017.1 |
| 20260904160148 | 88 | 299 | 0.0 | 5.0 | 0.00 | 0.00 | 0.00 | 66 | 1017.1 |
| 20260904155645 | 87 | 314 | 3.0 | 4.0 | 0.00 | 0.00 | 0.00 | 64 | 1017.1 |
| 20260904155142 | 88 | 229 | 3.0 | 7.0 | 0.00 | 0.00 | 0.00 | 65 | 1017.0 |
| 20260904154642 | 88 | 297 | 5.0 | 7.0 | 0.00 | 0.00 | 0.00 | 65 | 1017.0 |
| 20260904154148 | 88 | 285 | 5.0 | 6.0 | 0.00 | 0.00 | 0.00 | 66 | 1016.9 |
| 20260904153645 | 88 | 304 | 2.0 | 6.0 | 0.00 | 0.00 | 0.00 | 66 | 1017.0 |
| 20260904153145 | 88 | 290 | 0.0 | 6.0 | 0.00 | 0.00 | 0.00 | 64 | 1017.0 |
| 20260904152642 | 88 | 327 | 1.0 | 9.0 | 0.00 | 0.00 | 0.00 | 64 | 1017.1 |
| 20260904152145 | 88 | 281 | 6.0 | 9.0 | 0.00 | 0.00 | 0.00 | 64 | 1017.0 |
| 20260904151645 | 88 | 331 | 5.0 | 7.0 | 0.00 | 0.00 | 0.00 | 64 | 1017.0 |
| 20260904151142 | 88 | 266 | 5.0 | 9.0 | 0.00 | 0.00 | 0.00 | 63 | 1017.0 |
| 20260904150646 | 88 | 332 | 5.0 | 8.0 | 0.00 | 0.00 | 0.00 | 63 | 1017.0 |
| 20260904150148 | 88 | 335 | 0.0 | 9.0 | 0.00 | 0.00 | 0.00 | 63 | 1016.9 |
| 20260904145642 | 88 | 32 | 3.0 | 7.0 | 0.00 | 0.00 | 0.00 | 63 | 1016.9 |
| 20260904145142 | 89 | 338 | 4.0 | 7.0 | 0.00 | 0.00 | 0.00 | 63 | 1016.8 |
| 20260904144642 | 89 | 273 | 4.0 | 8.0 | 0.00 | 0.00 | 0.00 | 62 | 1016.8 |
| 20260904144142 | 89 | 282 | 7.0 | 9.0 | 0.00 | 0.00 | 0.00 | 63 | 1016.9 |
| 20260904143645 | 89 | 289 | 4.0 | 11.0 | 0.00 | 0.00 | 0.00 | 62 | 1016.9 |
| 20260904143145 | 89 | 319 | 2.0 | 7.0 | 0.00 | 0.00 | 0.00 | 61 | 1016.9 |
| 20260904142645 | 89 | 242 | 3.0 | 8.0 | 0.00 | 0.00 | 0.00 | 63 | 1016.9 |
| 20260904142148 | 89 | 273 | 4.0 | 9.0 | 0.00 | 0.00 | 0.00 | 63 | 1016.9 |
| 20260904141645 | 89 | 246 | 2.0 | 10.0 | 0.00 | 0.00 | 0.00 | 62 | 1016.9 |
| 20260904141142 | 89 | 297 | 8.0 | 9.0 | 0.00 | 0.00 | 0.00 | 63 | 1016.8 |
| 20260904140645 | 88 | 296 | 6.0 | 10.0 | 0.00 | 0.00 | 0.00 | 62 | 1016.8 |
| 20260904140142 | 88 | 276 | 8.0 | 11.0 | 0.00 | 0.00 | 0.00 | 63 | 1016.8 |
| 20260904135642 | 88 | 262 | 6.0 | 10.0 | 0.00 | 0.00 | 0.00 | 64 | 1016.9 |
| 20260904135148 | 89 | 283 | 8.0 | 10.0 | 0.00 | 0.00 | 0.00 | 64 | 1016.8 |
| 20260904134642 | 89 | 294 | 4.0 | 9.0 | 0.00 | 0.00 | 0.00 | 63 | 1016.9 |
| 20260904134142 | 88 | 315 | 3.0 | 9.0 | 0.00 | 0.00 | 0.00 | 62 | 1017.0 |
| 20260904133642 | 88 | 295 | 1.0 | 8.0 | 0.00 | 0.00 | 0.00 | 62 | 1017.0 |
| 20260904133142 | 88 | 313 | 6.0 | 9.0 | 0.00 | 0.00 | 0.00 | 63 | 1017.0 |
| 20260904132645 | 88 | 302 | 8.0 | 10.0 | 0.00 | 0.00 | 0.00 | 63 | 1017.1 |
| 20260904132142 | 88 | 12 | 6.0 | 9.0 | 0.00 | 0.00 | 0.00 | 63 | 1017.1 |
| 20260904131643 | 88 | 292 | 0.0 | 10.0 | 0.00 | 0.00 | 0.00 | 62 | 1017.1 |
| 20260904131142 | 88 | 309 | 1.0 | 7.0 | 0.00 | 0.00 | 0.00 | 63 | 1017.1 |
| 20260904130642 | 88 | 5 | 4.0 | 10.0 | 0.00 | 0.00 | 0.00 | 64 | 1017.1 |
| 20260904130142 | 88 | 292 | 5.0 | 9.0 | 0.00 | 0.00 | 0.00 | 62 | 1017.1 |
| 20260904125642 | 89 | 295 | 8.0 | 10.0 | 0.00 | 0.00 | 0.00 | 64 | 1017.1 |
| 20260904125145 | 88 | 213 | 3.0 | 9.0 | 0.00 | 0.00 | 0.00 | 65 | 1017.1 |
| 20260904124645 | 88 | 304 | 6.0 | 9.0 | 0.00 | 0.00 | 0.00 | 65 | 1017.2 |
| 20260904124142 | 88 | 294 | 6.0 | 10.0 | 0.00 | 0.00 | 0.00 | 66 | 1017.2 |
| 20260904123648 | 88 | 249 | 6.0 | 12.0 | 0.00 | 0.00 | 0.00 | 65 | 1017.2 |
| 20260904123142 | 88 | 300 | 8.0 | 11.0 | 0.00 | 0.00 | 0.00 | 65 | 1017.3 |
| 20260904122645 | 88 | 263 | 4.0 | 11.0 | 0.00 | 0.00 | 0.00 | 66 | 1017.3 |
| 20260904122148 | 88 | 279 | 9.0 | 10.0 | 0.00 | 0.00 | 0.00 | 66 | 1017.4 |
| 20260904121648 | 88 | 323 | 5.0 | 11.0 | 0.00 | 0.00 | 0.00 | 65 | 1017.4 |
| 20260904121142 | 88 | 309 | 4.0 | 12.0 | 0.00 | 0.00 | 0.00 | 66 | 1017.3 |
| 20260904120645 | 88 | 304 | 8.0 | 10.0 | 0.00 | 0.00 | 0.00 | 66 | 1017.4 |
| 20260904120145 | 88 | 308 | 5.0 | 13.0 | 0.00 | 0.00 | 0.00 | 65 | 1017.5 |
| 20260904115645 | 88 | 302 | 7.0 | 11.0 | 0.00 | 0.00 | 0.00 | 65 | 1017.4 |
| 20260904115142 | 88 | 306 | 7.0 | 12.0 | 0.00 | 0.00 | 0.00 | 64 | 1017.4 |
| 20260904114645 | 88 | 244 | 5.0 | 10.0 | 0.00 | 0.00 | 0.00 | 65 | 1017.5 |
| 20260904114148 | 88 | 267 | 5.0 | 11.0 | 0.00 | 0.00 | 0.00 | 63 | 1017.4 |
| 20260904113642 | 88 | 349 | 8.0 | 11.0 | 0.00 | 0.00 | 0.00 | 65 | 1017.4 |
| 20260904113142 | 88 | 344 | 3.0 | 11.0 | 0.00 | 0.00 | 0.00 | 65 | 1017.4 |
| 20260904112645 | 88 | 348 | 6.0 | 9.0 | 0.00 | 0.00 | 0.00 | 65 | 1017.4 |
| 20260904112142 | 88 | 347 | 3.0 | 9.0 | 0.00 | 0.00 | 0.00 | 65 | 1017.4 |
| 20260904111642 | 88 | 284 | 3.0 | 11.0 | 0.00 | 0.00 | 0.00 | 65 | 1017.4 |
| 20260904111148 | 87 | 300 | 6.0 | 10.0 | 0.00 | 0.00 | 0.00 | 67 | 1017.5 |
| 20260904110645 | 87 | 49 | 3.0 | 9.0 | 0.00 | 0.00 | 0.00 | 65 | 1017.5 |
| 20260904110145 | 87 | 328 | 7.0 | 10.0 | 0.00 | 0.00 | 0.00 | 66 | 1017.5 |
| 20260904105642 | 87 | 275 | 4.0 | 10.0 | 0.00 | 0.00 | 0.00 | 66 | 1017.5 |
| 20260904105142 | 87 | 287 | 7.0 | 12.0 | 0.00 | 0.00 | 0.00 | 66 | 1017.5 |
| 20260904104642 | 87 | 247 | 3.0 | 10.0 | 0.00 | 0.00 | 0.00 | 67 | 1017.5 |
| 20260904104142 | 87 | 300 | 7.0 | 12.0 | 0.00 | 0.00 | 0.00 | 66 | 1017.5 |
| 20260904103649 | 87 | 28 | 1.0 | 9.0 | 0.00 | 0.00 | 0.00 | 66 | 1017.4 |
| 20260904103142 | 87 | 274 | 7.0 | 12.0 | 0.00 | 0.00 | 0.00 | 66 | 1017.6 |
| 20260904102645 | 87 | 38 | 5.0 | 15.0 | 0.00 | 0.00 | 0.00 | 67 | 1017.5 |
| 20260904102145 | 87 | 294 | 15.0 | 15.0 | 0.00 | 0.00 | 0.00 | 66 | 1017.6 |
| 20260904101642 | 87 | 324 | 3.0 | 10.0 | 0.00 | 0.00 | 0.00 | 67 | 1017.6 |
| 20260904101148 | 87 | 279 | 7.0 | 9.0 | 0.00 | 0.00 | 0.00 | 67 | 1017.6 |
| 20260904100645 | 86 | 292 | 3.0 | 11.0 | 0.00 | 0.00 | 0.00 | 67 | 1017.6 |
| 20260904100148 | 86 | 267 | 6.0 | 12.0 | 0.00 | 0.00 | 0.00 | 68 | 1017.6 |